Date String (YYYY-MM-DD hh:mm:ss) UTC,Instrument flags,absolute air pressure of the measurement (hPa),sample flow rate (lpm),inlet stack bypass flow (lpm),air temperature of the measurement (°C),ambient temperature measured by the external sensor (°C),aerosol sample conditioner tube jacket temperature (°C),OPC LED temperature (°C),internal box temperature (°C),relative humidity of the measurement (%),span deviation,mass concentration of particles derived from Lorenz-Mie calculation of OPC scattering (μg/m³),mass concentration of particles derived from Lorenz-Mie calculation of OPC scattering (μg/m³),mass concentration of particles derived from Lorenz-Mie calculation of OPC scattering (μg/m³)
DateTimeUTC,F1_M11,P_M11,Q1_M11,Q2_M11,T1_M11,T2_M11,T3_M11,T4_M11,T5_M11,U1_M11,ZSPAN_M11,X0_M11,X2_M11,X1_M11
2024-06-11 21:00:00,SystemResetWarning,0829.5,5.00,000.00,028.8,027.9,000.0,037.2,030.6,033.4,0000.0,0028.84,0007.57,0005.81
2024-06-11 21:01:00,SystemResetWarning,0829.5,5.00,000.00,028.9,028.2,000.0,037.2,030.7,033.3,0000.0,0029.22,0007.56,0005.81
2024-06-11 21:02:00,SystemResetWarning,0829.5,5.01,000.00,029.0,028.4,000.0,037.2,030.9,033.1,0000.0,0029.44,0007.60,0005.82
2024-06-11 21:03:00,SystemResetWarning,0829.5,5.01,000.00,029.1,028.6,000.0,037.2,031.0,033.2,0000.0,0029.85,0007.63,0005.84
2024-06-11 21:04:00,SystemResetWarning,0829.5,5.00,000.00,029.2,028.7,000.0,037.3,031.1,032.5,0000.0,0028.45,0007.66,0005.85
2024-06-11 21:05:00,SystemResetWarning,0829.4,5.00,000.00,029.3,028.9,000.0,037.3,031.2,032.3,0000.0,0027.86,0007.69,0005.87
2024-06-11 21:06:00,SystemResetWarning,0829.4,5.00,000.00,029.3,029.0,000.0,037.4,031.3,031.7,0000.0,0027.47,0007.75,0005.88
2024-06-11 21:07:00,SystemResetWarning,0829.4,4.99,000.00,029.4,028.7,000.0,037.4,031.1,031.7,0000.0,0027.40,0007.81,0005.87
2024-06-11 21:08:00,SystemResetWarning,0829.3,5.00,000.00,029.1,026.6,000.0,037.5,030.0,032.3,0000.0,0027.11,0007.77,0005.84
2024-06-11 21:09:00,SystemResetWarning,0829.4,5.01,000.00,028.7,025.6,000.0,037.5,029.5,032.7,0000.0,0026.30,0007.77,0005.83
2024-06-11 21:10:00,SystemResetWarning,0829.4,5.00,000.00,028.6,025.9,000.0,037.4,029.6,033.1,0000.0,0026.70,0007.75,0005.82
2024-06-11 21:11:00,SystemResetWarning,0829.3,5.00,000.00,028.6,026.3,000.0,037.3,029.8,032.6,0000.0,0025.73,0007.82,0005.81
2024-06-11 21:12:00,SystemResetWarning,0829.3,5.01,000.00,028.6,026.8,000.0,037.2,030.1,032.6,0000.0,0025.20,0007.83,0005.81
2024-06-11 21:13:00,SystemResetWarning,0829.4,4.99,000.00,028.7,027.2,000.0,037.2,030.3,032.6,0000.0,0025.43,0007.81,0005.80
2024-06-11 21:14:00,SystemResetWarning,0829.4,5.00,000.00,028.8,027.6,000.0,037.2,030.5,031.5,0000.0,0028.03,0007.90,0005.80
2024-06-11 21:15:00,SystemResetWarning,0829.4,4.99,000.00,028.9,027.9,000.0,037.2,030.7,031.3,0000.0,0028.51,0007.91,0005.78
2024-06-11 21:16:00,SystemResetWarning,0829.4,4.99,000.00,029.0,028.2,000.0,037.2,030.8,031.4,0000.0,0029.57,0007.89,0005.77
2024-06-11 21:17:00,SystemResetWarning,0829.4,4.99,000.00,029.0,028.4,000.0,037.2,030.9,031.4,0000.0,0029.76,0007.82,0005.75
2024-06-11 21:18:00,SystemResetWarning,0829.4,5.01,000.00,029.1,028.6,000.0,037.2,031.0,030.9,0000.0,0029.82,0007.79,0005.74
2024-06-11 21:19:00,SystemResetWarning,0829.3,5.01,000.00,029.2,028.8,000.0,037.3,031.1,030.8,0000.0,0029.95,0007.77,0005.75
2024-06-11 21:20:00,SystemResetWarning,0829.3,4.99,000.00,029.3,028.8,000.0,037.3,031.1,031.2,0000.0,0029.65,0007.75,0005.75
2024-06-11 21:21:00,SystemResetWarning,0829.2,4.99,000.00,029.2,027.2,000.0,037.4,030.3,032.0,0000.0,0030.76,0007.68,0005.75
2024-06-11 21:22:00,SystemResetWarning,0829.1,5.01,000.00,028.8,025.6,000.0,037.4,029.5,031.5,0000.0,0030.28,0007.57,0005.74
2024-06-11 21:23:00,SystemResetWarning,0829.2,5.02,000.00,028.6,025.7,000.0,037.4,029.5,030.9,0000.0,0030.31,0007.55,0005.75
2024-06-11 21:24:00,SystemResetWarning,0829.1,4.99,000.00,028.5,026.1,000.0,037.3,029.7,031.9,0000.0,0029.84,0007.57,0005.76
2024-06-11 21:25:00,SystemResetWarning,0829.1,4.99,000.00,028.6,026.6,000.0,037.2,030.0,031.6,0000.0,0028.69,0007.46,0005.75
2024-06-11 21:26:00,SystemResetWarning,0829.1,5.01,000.00,028.6,027.0,000.0,037.1,030.2,031.2,0000.0,0029.28,0007.35,0005.75
2024-06-11 21:27:00,SystemResetWarning,0829.1,5.01,000.00,028.7,027.4,000.0,037.1,030.4,030.9,0000.0,0028.95,0007.34,0005.76
2024-06-11 21:28:00,SystemResetWarning,0829.1,4.99,000.00,028.8,027.8,000.0,037.1,030.5,031.1,0000.0,0026.44,0007.35,0005.76
2024-06-11 21:29:00,SystemResetWarning,0829.1,5.00,000.00,028.9,028.1,000.0,037.1,030.7,030.9,0000.0,0025.37,0007.34,0005.77
2024-06-11 21:30:00,SystemResetWarning,0829.1,5.01,000.00,028.9,028.3,000.0,037.1,030.8,030.8,0000.0,0026.50,0007.35,0005.78
2024-06-11 21:31:00,SystemResetWarning,0829.1,5.01,000.00,029.0,028.5,000.0,037.2,030.9,030.8,0000.0,0026.24,0007.33,0005.79
2024-06-11 21:32:00,SystemResetWarning,0829.0,5.01,000.00,029.1,028.7,000.0,037.2,031.0,031.0,0000.0,0025.48,0007.38,0005.81
2024-06-11 21:33:00,SystemResetWarning,0828.9,5.00,000.00,029.2,028.9,000.0,037.3,031.1,030.9,0000.0,0025.72,0007.42,0005.82
2024-06-11 21:34:00,SystemResetWarning,0828.9,5.00,000.00,029.3,029.0,000.0,037.3,031.2,030.8,0000.0,0025.67,0007.46,0005.81
2024-06-11 21:35:00,SystemResetWarning,0828.9,4.99,000.00,029.3,028.2,000.0,037.4,030.7,030.6,0000.0,0027.59,0007.55,0005.81
2024-06-11 21:36:00,SystemResetWarning,0828.8,5.00,000.00,029.0,026.1,000.0,037.4,029.8,031.4,0000.0,0029.00,0007.74,0005.83
2024-06-11 21:37:00,SystemResetWarning,0828.8,5.02,000.00,028.7,025.6,000.0,037.4,029.5,031.9,0000.0,0031.57,0007.90,0005.85
2024-06-11 21:38:00,SystemResetWarning,0828.8,4.99,000.00,028.6,026.1,000.0,037.3,029.7,032.3,0000.0,0031.78,0007.86,0005.85
2024-06-11 21:39:00,SystemResetWarning,0828.8,5.00,000.00,028.6,026.5,000.0,037.2,030.0,031.4,0000.0,0032.31,0007.80,0005.84
2024-06-11 21:40:00,SystemResetWarning,0828.8,5.00,000.00,028.7,027.0,000.0,037.2,030.2,031.4,0000.0,0032.87,0007.79,0005.84
2024-06-11 21:41:00,SystemResetWarning,0828.8,5.00,000.00,028.7,027.4,000.0,037.2,030.4,031.1,0000.0,0031.36,0007.81,0005.84
2024-06-11 21:42:00,SystemResetWarning,0828.8,5.00,000.00,028.8,027.8,000.0,037.2,030.6,030.3,0000.0,0031.31,0007.84,0005.83
2024-06-11 21:43:00,SystemResetWarning,0828.8,5.00,000.00,028.9,028.0,000.0,037.2,030.7,030.3,0000.0,0030.28,0007.86,0005.82
2024-06-11 21:44:00,SystemResetWarning,0828.8,5.00,000.00,029.0,028.3,000.0,037.2,030.8,031.2,0000.0,0029.50,0007.85,0005.83
2024-06-11 21:45:00,SystemResetWarning,0828.8,5.00,000.00,029.1,028.5,000.0,037.2,030.9,031.2,0000.0,0029.41,0007.83,0005.83
2024-06-11 21:46:00,SystemResetWarning,0828.8,5.01,000.00,029.2,028.7,000.0,037.2,031.0,030.7,0000.0,0028.18,0007.72,0005.82
2024-06-11 21:47:00,SystemResetWarning,0828.8,4.99,000.00,029.3,028.9,000.0,037.3,031.2,030.2,0000.0,0025.86,0007.52,0005.80
2024-06-11 21:48:00,SystemResetWarning,0828.8,4.99,000.00,029.4,029.0,000.0,037.3,031.3,030.8,0000.0,0022.25,0007.31,0005.78
2024-06-11 21:49:00,SystemResetWarning,0828.8,5.00,000.00,029.3,027.9,000.0,037.4,030.6,029.5,0000.0,0021.46,0007.31,0005.79
2024-06-11 21:50:00,SystemResetWarning,0828.7,5.01,000.00,028.9,026.0,000.0,037.5,029.7,029.9,0000.0,0021.73,0007.37,0005.80
2024-06-11 21:51:00,SystemResetWarning,0828.7,5.01,000.00,028.7,025.7,000.0,037.4,029.5,030.9,0000.0,0022.15,0007.41,0005.83
2024-06-11 21:52:00,SystemResetWarning,0828.7,5.00,000.00,028.6,026.2,000.0,037.3,029.7,031.1,0000.0,0023.16,0007.35,0005.82
2024-06-11 21:53:00,SystemResetWarning,0828.7,5.00,000.00,028.6,026.6,000.0,037.3,030.0,030.7,0000.0,0024.20,0007.29,0005.82
2024-06-11 21:54:00,SystemResetWarning,0828.7,5.00,000.00,028.7,027.1,000.0,037.2,030.3,030.3,0000.0,0024.33,0007.27,0005.81
2024-06-11 21:55:00,SystemResetWarning,0828.7,5.00,000.00,028.8,027.5,000.0,037.2,030.5,030.7,0000.0,0024.29,0007.27,0005.81
2024-06-11 21:56:00,SystemResetWarning,0828.7,5.00,000.00,028.9,027.9,000.0,037.2,030.6,030.5,0000.0,0023.87,0007.30,0005.82
2024-06-11 21:57:00,SystemResetWarning,0828.7,5.00,000.00,028.9,028.2,000.0,037.2,030.8,030.4,0000.0,0024.04,0007.30,0005.81
2024-06-11 21:58:00,SystemResetWarning,0828.7,5.00,000.00,029.0,028.4,000.0,037.2,030.9,030.4,0000.0,0023.34,0007.36,0005.81
2024-06-11 21:59:00,SystemResetWarning,0828.6,5.00,000.00,029.1,028.6,000.0,037.2,031.0,030.1,0000.0,0024.79,0007.42,0005.81
